[[{"header":{"parameterUnit":"m.s-1","parameterCategory":1,"la1":30.2991,"la2":30.254,"lo1":-89.0895,"lo2":-89.0444,"dy":0.0017,"dx":0.0017,"nx":28,"ny":28,"refTime":"2024-04-14T09:00:00:Z","depth":0,"parameterNumber":2,"parameterNumberName":"U-component_of_WINDS"},"data":[0,0,0,0,0,0,0,0,0,0,0,0,0,0,0,0,0,0,0,0,0,0,0,0,0,0,0,0,0,0,0,0,0,0,0,0,0,0,0,0,0,0,0,0,0,0,0,0,0,0,0,0,0,0,0,0,0,0,-1.2537,-1.2538,0,-1.2568,-1.2568,-1.2568,-1.2576,-1.2576,-1.2576,-1.2576,-1.2608,-1.2609,-1.261,0,0,0,0,0,0,0,0,0,0,0,0,0,-1.2488,-1.2489,-1.2537,-1.2538,-1.2538,-1.2568,-1.2568,-1.2568,-1.2576,-1.2576,-1.2576,-1.2575,-1.2608,-1.2609,-1.261,0,0,0,0,0,0,0,0,0,0,0,0,0,-1.2513,-1.2489,-1.2537,-1.2545,-1.2546,-1.2567,-1.2568,-1.2569,-1.2576,-1.2576,-1.2576,-1.2575,-1.2608,-1.2609,-1.2611,-1.2626,0,0,-1.2615,-1.2616,0,0,0,0,0,0,0,0,-1.2512,-1.2515,-1.2544,-1.2545,-1.2546,-1.2568,-1.2563,-1.2588,-1.2576,-1.2565,-1.2576,-1.2575,-1.2595,-1.2598,-1.2604,-1.2628,-1.2629,-1.2616,-1.2617,-1.2617,-1.2618,0,0,0,0,0,0,0,-1.251,-1.2514,-1.2549,-1.2544,-1.2546,-1.2548,-1.2552,-1.2568,-1.2581,-1.2566,-1.2567,-1.257,-1.2596,-1.2603,-1.2605,-1.263,-1.2616,-1.2617,-1.2618,-1.2619,-1.2669,-1.2669,0,0,0,0,0,0,-1.2507,-1.2512,-1.2548,-1.255,-1.2528,-1.2549,-1.2553,-1.2561,-1.2581,-1.2584,-1.257,-1.257,-1.26,-1.2603,-1.2606,-1.2626,-1.2617,-1.2619,-1.262,-1.2668,-1.2669,-1.2669,0,0,0,0,0,0,-1.2505,-1.251,-1.2547,-1.2531,-1.2536,-1.2551,-1.256,-1.2562,-1.2569,-1.2584,-1.2587,-1.2574,-1.26,-1.2604,-1.2621,-1.2627,-1.2619,-1.2621,-1.2668,-1.2668,-1.2669,-1.2666,0,0,0,0,0,0,-1.2504,-1.2509,-1.2515,-1.2531,-1.2537,-1.2561,-1.256,-1.2563,-1.2571,-1.2571,-1.2589,-1.2592,-1.26,-1.2619,-1.2623,-1.2629,-1.2622,-1.2667,-1.2668,-1.2669,-1.2665,-1.2666,-1.2667,0,0,0,0,0,-1.2502,-1.2513,-1.2515,-1.2519,-1.2544,-1.2561,-1.2565,-1.2573,-1.2572,-1.2578,-1.2588,-1.2591,-1.2626,-1.2621,-1.2625,-1.2632,-1.2667,-1.2668,-1.2669,-1.2665,-1.2666,-1.2667,0,0,0,0,0,0,-1.2496,-1.2515,-1.2518,-1.2534,-1.2546,-1.2562,-1.257,-1.2574,-1.2587,-1.2587,-1.2598,-1.2602,-1.2619,-1.2627,-1.2621,-1.2649,-1.2647,-1.2649,-1.2642,-1.2643,-1.2644,-1.2641,-1.2623,0,0,0,0,0,-1.2497,-1.2509,-1.2524,-1.2537,-1.2543,-1.2556,-1.2563,-1.2569,-1.2582,-1.2588,-1.2599,-1.2613,-1.2627,-1.2636,-1.2649,-1.2667,-1.2671,-1.2674,-1.2675,-1.2675,-1.2677,-1.2688,-1.2689,-1.2672,-1.2672,-1.2672,0,0,-1.2498,-1.251,-1.2516,-1.2536,-1.2546,-1.2559,-1.256,-1.2573,-1.2583,-1.259,-1.2607,-1.2616,-1.2632,-1.2649,-1.2658,-1.2657,-1.2683,-1.2677,-1.2677,-1.2678,-1.2689,-1.269,-1.2692,-1.2673,-1.2673,-1.2672,0,0,-1.2507,-1.2517,-1.2528,-1.2539,-1.2554,-1.2562,-1.2565,-1.2582,-1.2588,-1.2605,-1.2611,-1.2623,-1.2647,-1.2658,-1.2667,-1.2681,-1.2685,-1.2686,-1.2689,-1.27,-1.2701,-1.2702,-1.2707,-1.2709,-1.2687,-1.2687,-1.2687,0,-1.2506,-1.2525,-1.2534,-1.2547,-1.2556,-1.2563,-1.2575,-1.2585,-1.2604,-1.2611,-1.261,-1.2641,-1.2652,-1.2672,-1.2676,-1.2683,-1.2687,-1.2683,-1.27,-1.2701,-1.2702,-1.2708,-1.271,-1.2687,-1.2687,-1.2687,-1.2687,0,-1.2524,-1.2537,-1.2545,-1.2562,-1.2572,-1.2585,-1.2597,-1.2606,-1.2612,-1.2621,-1.2639,-1.2652,-1.2669,-1.2675,-1.2681,-1.2697,-1.2696,-1.2697,-1.2695,-1.2704,-1.2709,-1.2711,-1.2687,-1.2687,-1.2687,-1.2687,0,0,-1.2528,-1.2552,-1.2555,-1.2563,-1.2581,-1.2592,-1.2605,-1.2622,-1.2629,-1.2643,-1.2655,-1.2676,-1.2677,-1.2687,-1.2695,-1.2704,-1.2715,-1.2704,-1.2705,-1.2706,-1.2735,-1.2733,-1.2735,-1.2718,-1.2718,-1.2719,-1.2733,0,-1.2539,-1.2562,-1.2572,-1.2591,-1.2604,-1.2612,-1.2624,-1.2636,-1.2646,-1.2658,-1.2669,-1.2683,-1.2684,-1.269,-1.27,-1.2711,-1.2721,-1.2711,-1.273,-1.273,-1.2725,-1.2738,-1.2736,-1.2749,-1.2735,-1.2736,-1.2736,0,-1.2554,-1.2567,-1.2588,-1.2605,-1.2611,-1.2621,-1.2637,-1.2649,-1.2664,-1.2671,-1.2682,-1.2689,-1.2705,-1.2703,-1.2725,-1.2718,-1.2727,-1.2734,-1.2735,-1.2736,-1.2733,-1.274,-1.2753,-1.2755,-1.2739,-1.2739,-1.2739,0,-1.2555,-1.2578,-1.2594,-1.2601,-1.2621,-1.2629,-1.2638,-1.2653,-1.2662,-1.2677,-1.2683,-1.27,-1.2709,-1.2722,-1.2734,-1.2731,-1.2756,-1.2754,-1.2762,-1.2761,-1.2766,-1.2765,-1.2781,-1.2772,-1.2772,-1.2772,-1.2772,0,-1.2566,-1.2578,-1.2595,-1.2604,-1.2619,-1.263,-1.2644,-1.2654,-1.2667,-1.268,-1.2688,-1.27,-1.2714,-1.2728,-1.2738,-1.2755,-1.2759,-1.2765,-1.2768,-1.2764,-1.2763,-1.277,-1.2769,-1.2772,-1.2772,-1.2772,-1.2772,0,-1.2569,-1.2581,-1.2598,-1.2616,-1.2621,-1.2631,-1.2647,-1.2657,-1.2667,-1.2682,-1.2687,-1.2703,-1.272,-1.2733,-1.2755,-1.2761,-1.278,-1.2782,-1.2774,-1.2775,-1.2782,-1.2781,-1.2802,-1.2805,-1.2794,-1.2794,-1.2795,0,-1.2575,-1.2584,-1.2604,-1.2612,-1.2621,-1.2634,-1.2644,-1.2656,-1.2666,-1.2685,-1.2693,-1.2711,-1.2725,-1.2752,-1.2766,-1.2783,-1.2786,-1.2793,-1.2789,-1.2786,-1.2787,-1.2786,-1.2787,-1.2793,-1.2793,-1.2793,-1.2793,0,-1.2584,-1.2589,-1.2602,-1.2618,-1.2629,-1.2642,-1.2656,-1.2662,-1.2677,-1.2688,-1.2705,-1.2716,-1.2739,-1.2757,-1.2776,-1.2786,-1.2792,-1.2794,-1.2797,-1.2793,-1.2788,-1.2791,-1.2775,-1.2793,-1.2793,-1.2793,-1.2793,-1.2793,-1.2588,-1.2597,-1.2612,-1.2627,-1.2638,-1.2651,-1.2661,-1.2673,-1.2687,-1.2705,-1.2712,-1.273,-1.2747,-1.2773,-1.2784,-1.2799,-1.2799,-1.2803,-1.2804,-1.2804,-1.2804,-1.2786,-1.2802,-1.2802,-1.2802,-1.2802,-1.2802,0,-1.2597,-1.2608,-1.2621,-1.2639,-1.2651,-1.2656,-1.2671,-1.2681,-1.2696,-1.2711,-1.2725,-1.2745,-1.2762,-1.2778,-1.2797,-1.2806,-1.2809,-1.281,-1.2809,-1.2812,-1.2803,-1.2798,-1.2807,-1.2807,-1.2807,-1.2807,-1.2807,-1.2807,-1.2604,-1.2619,-1.2627,-1.2648,-1.2659,-1.2676,-1.2684,-1.2696,-1.2708,-1.273,-1.2744,-1.2754,-1.277,-1.2789,-1.2806,-1.281,-1.2817,-1.2817,-1.2822,-1.2813,-1.2812,-1.2812,-1.2808,-1.2819,-1.2819,-1.283,-1.2831,-1.2831]},{"header":{"parameterUnit":"m.s-1","parameterCategory":1,"la1":30.2991,"la2":30.254,"lo1":-89.0895,"lo2":-89.0444,"dy":0.0017,"dx":0.0017,"nx":28,"ny":28,"refTime":"2024-04-14T09:00:00:Z","depth":0,"parameterNumber":3,"parameterNumberName":"V-component_of_WINDS"},"data":[0,0,0,0,0,0,0,0,0,0,0,0,0,0,0,0,0,0,0,0,0,0,0,0,0,0,0,0,0,0,0,0,0,0,0,0,0,0,0,0,0,0,0,0,0,0,0,0,0,0,0,0,0,0,0,0,0,0,3.214,3.214,0,3.2166,3.2166,3.2167,3.2129,3.2127,3.2126,3.2125,3.2148,3.215,3.2152,0,0,0,0,0,0,0,0,0,0,0,0,0,3.2053,3.2055,3.214,3.214,3.2141,3.2166,3.2166,3.2167,3.2129,3.2127,3.2126,3.2124,3.2148,3.215,3.2152,0,0,0,0,0,0,0,0,0,0,0,0,0,3.2086,3.2056,3.214,3.2125,3.2124,3.2166,3.2166,3.2167,3.2129,3.2127,3.2125,3.2123,3.2147,3.215,3.2152,3.2209,0,0,3.2161,3.2162,0,0,0,0,0,0,0,0,3.2085,3.209,3.2127,3.2126,3.2125,3.2142,3.2144,3.2181,3.213,3.2127,3.2125,3.2122,3.2148,3.215,3.2159,3.2211,3.2212,3.2161,3.2163,3.2164,3.2165,0,0,0,0,0,0,0,3.2082,3.2088,3.215,3.2127,3.2126,3.2116,3.2118,3.2151,3.2148,3.2127,3.2125,3.2128,3.2147,3.2157,3.216,3.2212,3.2161,3.2164,3.2165,3.2166,3.231,3.2313,0,0,0,0,0,0,3.2082,3.2087,3.2149,3.2151,3.21,3.2119,3.2122,3.2139,3.2148,3.2147,3.213,3.2126,3.2153,3.2156,3.216,3.2228,3.2164,3.2167,3.2168,3.2308,3.2311,3.2313,0,0,0,0,0,0,3.2081,3.2088,3.2148,3.2118,3.2125,3.2122,3.2142,3.214,3.215,3.215,3.2149,3.2141,3.2152,3.2156,3.2198,3.2228,3.2168,3.217,3.2306,3.2309,3.2312,3.2363,0,0,0,0,0,0,3.2078,3.2088,3.2111,3.2119,3.2127,3.2186,3.2144,3.2142,3.2156,3.2151,3.216,3.216,3.215,3.2194,3.22,3.2231,3.2173,3.2303,3.2307,3.2311,3.2358,3.2367,3.2375,0,0,0,0,0,3.2075,3.2123,3.2112,3.212,3.2155,3.2188,3.2192,3.2182,3.2158,3.218,3.218,3.2159,3.2223,3.2198,3.2205,3.2237,3.2301,3.2306,3.2311,3.2355,3.2366,3.2375,0,0,0,0,0,0,3.2117,3.2124,3.2112,3.2164,3.2176,3.2182,3.2209,3.2194,3.2212,3.2207,3.2192,3.2195,3.2239,3.2242,3.2214,3.2292,3.2258,3.2265,3.2289,3.2299,3.2308,3.2306,3.2175,0,0,0,0,0,3.2133,3.216,3.2164,3.221,3.2217,3.2212,3.2226,3.2217,3.2228,3.2233,3.2236,3.2247,3.2269,3.2284,3.2305,3.2358,3.2359,3.2384,3.2392,3.2399,3.2405,3.2433,3.2443,3.2329,3.2329,3.2329,0,0,3.2165,3.2172,3.219,3.2218,3.2227,3.2254,3.2217,3.2248,3.2268,3.2237,3.2277,3.2279,3.229,3.2338,3.2359,3.2342,3.2436,3.2405,3.241,3.2412,3.2439,3.245,3.2459,3.2332,3.2332,3.2331,0,0,3.2237,3.2246,3.2284,3.2294,3.2307,3.2304,3.2313,3.2321,3.2322,3.2362,3.2339,3.2362,3.2402,3.2411,3.242,3.2496,3.2477,3.2503,3.2546,3.2574,3.2583,3.2591,3.2617,3.2627,3.2508,3.2509,3.2509,0,3.2275,3.2317,3.2306,3.2339,3.2352,3.2326,3.2365,3.2374,3.2393,3.2402,3.2383,3.2431,3.2437,3.2486,3.2505,3.2513,3.2523,3.2502,3.2582,3.259,3.2597,3.2623,3.2633,3.2512,3.2511,3.2511,3.2511,0,3.2363,3.2392,3.2422,3.2442,3.2458,3.2494,3.2487,3.2504,3.2493,3.2491,3.2532,3.2537,3.2559,3.257,3.2559,3.2617,3.2606,3.2585,3.255,3.2612,3.2635,3.2645,3.2516,3.2515,3.2514,3.2513,0,0,3.2463,3.2477,3.2488,3.2496,3.2509,3.2531,3.2565,3.2587,3.2602,3.2615,3.2643,3.2677,3.2657,3.2668,3.2658,3.2682,3.2742,3.2658,3.2658,3.2673,3.2806,3.2822,3.2833,3.2729,3.2731,3.2733,3.2805,0,3.2535,3.2595,3.2586,3.2643,3.267,3.2646,3.2675,3.2686,3.2685,3.2706,3.2704,3.2729,3.2701,3.2708,3.273,3.273,3.2768,3.2724,3.2754,3.2755,3.2752,3.2846,3.2863,3.2931,3.2814,3.2815,3.2817,0,3.2628,3.2647,3.2707,3.2715,3.2726,3.2753,3.2772,3.2793,3.2804,3.2801,3.2814,3.2799,3.2832,3.2797,3.2841,3.2811,3.2823,3.2824,3.2826,3.2829,3.279,3.2851,3.2952,3.2963,3.2831,3.283,3.2829,0,3.2695,3.2735,3.2776,3.2784,3.2795,3.2814,3.2819,3.2828,3.2842,3.2858,3.2867,3.2886,3.2897,3.2912,3.2903,3.2878,3.2948,3.2912,3.2947,3.2947,3.2963,3.2962,3.3068,3.297,3.297,3.297,3.2969,0,3.2777,3.2815,3.2806,3.2832,3.2873,3.2861,3.2902,3.2904,3.2912,3.2937,3.2916,3.294,3.2926,3.2948,3.294,3.2978,3.2983,3.2981,3.2979,3.2983,3.2984,3.2991,3.2986,3.2972,3.2972,3.2971,3.2971,0,3.2859,3.2855,3.2899,3.2905,3.2908,3.2938,3.2943,3.2966,3.2964,3.2995,3.3001,3.2997,3.3022,3.3014,3.304,3.3035,3.3083,3.3075,3.308,3.3078,3.3113,3.311,3.3227,3.3242,3.3134,3.3135,3.3136,0,3.2912,3.2941,3.2951,3.2967,3.2974,3.2999,3.3013,3.3002,3.3017,3.3031,3.3053,3.3076,3.3094,3.3134,3.3132,3.3152,3.3144,3.3184,3.3147,3.315,3.3145,3.3143,3.3146,3.3191,3.3192,3.3193,3.3194,0,3.3007,3.3003,3.3025,3.3046,3.3064,3.3079,3.3093,3.3107,3.3096,3.3114,3.314,3.3154,3.3181,3.3204,3.3221,3.3225,3.3208,3.3206,3.3215,3.322,3.3222,3.3221,3.31,3.3203,3.3202,3.3202,3.3201,3.3201,3.3076,3.31,3.3111,3.3136,3.3145,3.3158,3.3181,3.3181,3.3203,3.3224,3.3216,3.3245,3.3254,3.3277,3.3283,3.3305,3.329,3.3303,3.3306,3.3309,3.3314,3.3218,3.3308,3.3308,3.3308,3.3307,3.3307,0,3.3169,3.3175,3.3198,3.3218,3.3237,3.322,3.3234,3.3251,3.3278,3.3288,3.3306,3.3335,3.3357,3.3358,3.3378,3.3395,3.3388,3.3401,3.34,3.3401,3.3327,3.3317,3.3407,3.3407,3.3407,3.3407,3.3407,3.3407,3.322,3.326,3.3258,3.3302,3.3307,3.3337,3.3346,3.3358,3.3366,3.34,3.3419,3.3419,3.3425,3.3446,3.3465,3.3464,3.3472,3.3489,3.3485,3.3416,3.3406,3.3397,3.3387,3.3491,3.3491,3.3558,3.3558,3.3559]}]]